Погода в имени Карле Марксе

Узбекистан     41°30′44″N   60°38′30″E
темп.,
°C
ветер,
м/с
пор.,
м/с
влажн.,
%
обл.,
%
осадки,
мм/ч
давл.,
гПа
погр.,
м
27 февраля, сб
сб2723:00−1ююз5919100 0.1 1029553
02:00−1ююз7112394 0.0 1026516
05:00−1ююз7123492 0.1 1025615
08:000юз8144497 0.0 1024567
11:000юз8127699 0.2 1025422
14:00+3юз81172100 0.1 1025456
17:00+4юз696395 0.1 1024488
20:00+2ююз486599 0.0 1025140
28 февраля, вс
вс2823:00+2ю456789 0.0 102466
02:00+1ю454962 0.0 102375
05:000ю443631 0.0 102261
08:00+1ююв443329 0.0 102181
11:00+6ююв562239 0.0 1021319
14:00+10ююв562087 0.0 1019674
17:00+11ююв452152 0.0 1017791
20:00+8юв443366 0.0 101762
1 марта, пн
пн123:00+6ююв454033 0.0 101771
02:00+5ююв34410 0.0 101742
05:00+4ююв34430 0.0 101625
08:00+3ююв34450 0.0 101722
11:00+9ююз23320 0.0 1017266
14:00+14зюз34240 0.0 1017805
17:00+15з45230 0.0 10161085
20:00+11зсз34310 0.0 101836
2 марта, вт
вт223:00+8зсз33360 0.0 102024
02:00+5ссв46550 0.0 1021111
05:00+2ссв47870 0.0 1022182
08:00+2ссв488877 0.0 1024274
11:00+5ссв456688 0.0 1025500
14:00+8с335676 0.0 1025877
17:00+9с335387 0.0 10241132
20:00+7с4465100 0.0 1025597
3 марта, ср
ср323:00+4св347585 0.0 1025133
02:00+3всв237840 0.0 102445
05:00+3в237865 0.0 102457
08:00+3в237898 0.0 102387
11:00+6юв446299 0.0 1023544
14:00+9ююв235186 0.0 10201028
17:00+10ююв224863 0.0 10181244
20:00+9вюв345484 0.0 1017111